Eelde, Netherlands

9:55 AM CEST on May 27, 2017 (GMT +0200)
Eelde

Weather History for EHGG - June, 2013

Change the Weather History Date:

Thursday, June 27, 2013

  Actual Average Record
Temperature  
Mean Temperature 53 °F -  
Max Temperature 57 °F 69 °F 84 °F (2011)
Min Temperature 49 °F 52 °F 44 °F (2005)
Degree Days  
Heating Degree Days 12    
Growing Degree Days 3 (Base 50)    
Moisture  
Dew Point 49 °F    
Average Humidity 86    
Maximum Humidity 100    
Minimum Humidity 67    
Precipitation  
Precipitation 0.02 in 0.10 in - ()
Sea Level Pressure  
Sea Level Pressure 30.16 in    
Wind  
Wind Speed 7 mph ()    
Max Wind Speed 14 mph    
Max Gust Speed -    
Visibility 6.3 miles    
Events Rain    
Averages and records for this station are not official NWS values.
T = Trace of Precipitation, MM = Missing Value Source: Averaged Metar Reports

Daily Weather History Graph

Daily Weather History Graph

Search for Another Location

Airport or City:

Trip Planner

Search our weather history database for the weather conditions in past years. The results will help you decide how hot, cold, wet, or windy it might be!

Date:

Astronomy

Jun. 27, 2013 Rise Set
Actual Time 5:08 AM CEST 10:04 PM CEST
Civil Twilight 4:17 AM CEST 10:55 PM CEST
Nautical Twilight 2:47 AM CEST 12:24 AM CEST
Astronomical Twilight Sun does not set Sun does not set
Moon No Moon Rise 10:34 AM CEST
Length of Visible Light 18h 38m
Length of Day
16h 55m
Waning Gibbous, 79% of the Moon is Illuminated
Jun 27
Waning Gibbous
Jun 30
Last Quarter
Jul 8
New
Jul 16
First Quarter
Jul 22
Full

Hourly Weather History & Observations

Time (CEST) Temp. Dew Point Humidity Pressure Visibility Wind Dir Wind Speed Gust Speed Precip Events Conditions
12:25 AM 51.8 °F 50.0 °F 94% 30.21 in 6.2 mi West 4.6 mph - N/A   Unknown
12:55 AM 51.8 °F 50.0 °F 94% 30.21 in 6.2 mi WSW 5.8 mph - N/A   Overcast
1:25 AM 51.8 °F 50.0 °F 94% 30.21 in 6.2 mi West 5.8 mph - N/A   Scattered Clouds
1:55 AM 51.8 °F 51.8 °F 100% 30.21 in 6.2 mi West 5.8 mph - N/A   Partly Cloudy
2:00 AM 52 °F 51 °F 95% 30.22 in 6 mi West 6.7 mph - -   Mist
2:25 AM 51.8 °F 50.0 °F 94% 30.21 in 5.0 mi West 5.8 mph - N/A   Partly Cloudy
2:55 AM 50.0 °F 48.2 °F 94% 30.18 in 3.1 mi West 4.6 mph - N/A   Unknown
3:25 AM 50.0 °F 50.0 °F 100% 30.18 in 3.1 mi WSW 5.8 mph - N/A   Partly Cloudy
3:55 AM 50.0 °F 50.0 °F 100% 30.18 in 4.3 mi West 5.8 mph - N/A   Scattered Clouds
4:25 AM 51.8 °F 50.0 °F 94% 30.18 in 5.0 mi West 4.6 mph - N/A   Mostly Cloudy
4:55 AM 51.8 °F 50.0 °F 94% 30.18 in 3.7 mi WSW 4.6 mph - N/A Rain Light Rain
5:00 AM 51 °F 50 °F 96% 30.20 in 3 mi West 6.7 mph - - Rain Light Rain Showers
5:25 AM 51.8 °F 50.0 °F 94% 30.18 in 6.2 mi West 4.6 mph - N/A   Mostly Cloudy
5:55 AM 50.0 °F 50.0 °F 100% 30.18 in 6.2 mi West 5.8 mph - N/A   Scattered Clouds
6:25 AM 50.0 °F 50.0 °F 100% 30.18 in 6.2 mi West 5.8 mph - N/A   Partly Cloudy
6:55 AM 50.0 °F 48.2 °F 94% 30.18 in 6.2 mi West 5.8 mph - N/A   Unknown
7:25 AM 51.8 °F 48.2 °F 88% 30.18 in 6.2 mi West 4.6 mph - N/A   Unknown
7:55 AM 51.8 °F 48.2 °F 88% 30.15 in 6.2 mi West 5.8 mph - N/A   Unknown
8:00 AM 53 °F 49 °F 80% 30.18 in 14 mi West 6.7 mph - -   Partly Cloudy
8:25 AM 53.6 °F 48.2 °F 82% 30.15 in 6.2 mi West 5.8 mph - N/A   Unknown
8:55 AM 53.6 °F 48.2 °F 82% 30.15 in 6.2 mi WNW 8.1 mph - N/A   Unknown
9:25 AM 53.6 °F 46.4 °F 77% 30.15 in 6.2 mi West 10.4 mph - N/A   Overcast
9:55 AM 53.6 °F 46.4 °F 77% 30.15 in 6.2 mi WNW 10.4 mph - N/A   Overcast
10:25 AM 55.4 °F 46.4 °F 72% 30.15 in 6.2 mi West 6.9 mph - N/A   Overcast
10:55 AM 55.4 °F 46.4 °F 72% 30.15 in 6.2 mi WNW 8.1 mph - N/A   Overcast
11:00 AM 55 °F 47 °F 67% 30.18 in 22 mi WNW 8.9 mph - -   Overcast
11:25 AM 55.4 °F 46.4 °F 72% 30.15 in 6.2 mi WNW 8.1 mph - N/A   Overcast
11:55 AM 55.4 °F 46.4 °F 72% 30.18 in 6.2 mi WNW 10.4 mph - N/A   Mostly Cloudy
12:25 PM 55.4 °F 46.4 °F 72% 30.18 in 6.2 mi West 8.1 mph - N/A   Overcast
12:55 PM 55.4 °F 48.2 °F 77% 30.18 in 6.2 mi West 6.9 mph - N/A   Partly Cloudy
1:25 PM 55.4 °F 48.2 °F 77% 30.18 in 6.2 mi WNW 13.8 mph - N/A Rain Light Rain
1:55 PM 53.6 °F 48.2 °F 82% 30.18 in 6.2 mi WNW 10.4 mph - N/A Rain Light Rain Showers
2:00 PM 54 °F 49 °F 76% 30.19 in 9 mi WNW 8.9 mph - - Rain Light Rain Showers
2:25 PM 53.6 °F 48.2 °F 82% 30.18 in 6.2 mi West 8.1 mph - N/A   Overcast
2:55 PM 55.4 °F 50.0 °F 82% 30.18 in 6.2 mi WSW 8.1 mph - N/A   Scattered Clouds
3:25 PM 53.6 °F 50.0 °F 88% 30.15 in 6.2 mi WSW 8.1 mph - N/A   Overcast
3:55 PM 53.6 °F 50.0 °F 88% 30.15 in 5.6 mi West 8.1 mph - N/A   Mostly Cloudy
4:25 PM 55.4 °F 50.0 °F 82% 30.15 in 6.2 mi West 8.1 mph - N/A   Partly Cloudy
4:55 PM 57.2 °F 50.0 °F 77% 30.15 in 6.2 mi West 8.1 mph - N/A   Partly Cloudy
5:00 PM 56 °F 48 °F 68% 30.16 in 16 mi WSW 11.2 mph - -   Partly Cloudy
5:25 PM 57.2 °F 48.2 °F 72% 30.12 in 6.2 mi WNW 10.4 mph - N/A   Mostly Cloudy
5:55 PM 55.4 °F 48.2 °F 77% 30.12 in 6.2 mi West 11.5 mph - N/A   Mostly Cloudy
6:25 PM 55.4 °F 48.2 °F 77% 30.12 in 6.2 mi West 10.4 mph - N/A   Mostly Cloudy
6:55 PM 55.4 °F 48.2 °F 77% 30.12 in 6.2 mi West 10.4 mph - N/A   Partly Cloudy
7:25 PM 53.6 °F 48.2 °F 82% 30.12 in 6.2 mi West 10.4 mph - N/A   Overcast
7:55 PM 53.6 °F 48.2 °F 82% 30.12 in 6.2 mi WSW 9.2 mph - N/A Rain Light Rain
8:00 PM 53 °F 49 °F 80% 30.13 in 9 mi WSW 8.9 mph - - Rain Light Drizzle
8:25 PM 51.8 °F 50.0 °F 94% 30.12 in 6.2 mi WSW 11.5 mph - N/A Rain Light Rain
8:55 PM 51.8 °F 50.0 °F 94% 30.12 in 6.2 mi WSW 8.1 mph - N/A Rain Light Rain
9:25 PM 51.8 °F 50.0 °F 94% 30.09 in 6.2 mi SW 8.1 mph - N/A   Light Drizzle
9:55 PM 51.8 °F 50.0 °F 94% 30.09 in 6.2 mi SW 6.9 mph - N/A Rain Light Rain
10:25 PM 51.8 °F 50.0 °F 94% 30.09 in 6.2 mi SW 8.1 mph - N/A   Drizzle
10:55 PM 51.8 °F 50.0 °F 94% 30.09 in 6.2 mi WSW 8.1 mph - N/A   Drizzle
11:00 PM 52 °F 50 °F 90% 30.11 in 8 mi SW 8.9 mph - - Rain Drizzle
11:25 PM 51.8 °F 50.0 °F 94% 30.09 in 6.2 mi SW 9.2 mph - N/A   Light Drizzle
11:55 PM 51.8 °F 50.0 °F 94% 30.06 in 6.2 mi SW 11.5 mph - N/A   Light Drizzle